Home > Weather > Qadian > Past weeks

Flag for India Past Weather in Qadian, Punjab, India — Yesterday and Last 2 Weeks

Now
82 °F

Scattered clouds.


Feels Like: 84 °F
Forecast: 76 / 109 °F
Wind: 2 mph from North

Location: Amritsar Airport

Current Time: May 26, 2016 at 8:28:02 AM

Latest Report: May 26, 2016 at 8:00 AM


Visibility: 2 mi

Pressure: 29.53 "Hg

Humidity: 55%

Dew Point: 64 °F

Location of QadianLocation

Past Weather in Qadian — Graph

°F

Qadian Temperature Yesterday

Maximum temperature yesterday: 99 °F (at 3:30 PM)
Minimum temperature yesterday: 73 °F (at 1:30 AM)
Average temperature yesterday: 86 °F

High & Low Weather Summary for the Past Weeks

 TemperatureHumidityPressure
High111 °F (May 18, 3:30 PM)100% (May 24, 4:00 AM)29.86 "Hg (May 24, 4:00 AM)
Low68 °F (May 24, 4:00 AM)9% (May 15, 12:00 PM)29.36 "Hg (May 21, 5:00 PM)
Average91 °F37%29.56 "Hg
* Reported May 11 6:30 AM — May 26 7:00 AM, Qadian, Weather by CustomWeather, © 2016

Note: Actual official high and low records may vary slightly from our data, if they occured in-between our weather recording intervals... More about our weather records

Advertising

Qadian Weather History for the Previous 24 Hours

Scroll right to see more
 ConditionsComfort  
Time TempWeatherWind HumidityBarometerVisibility
7:00 AM
Thu, May 26
79 °FScattered clouds.No wind61%29.53 "Hg1 mi
6:30 AM77 °FScattered clouds.No wind61%29.50 "Hg1 mi
6:00 AM75 °FScattered clouds.No wind65%29.47 "Hg1 mi
5:30 AM75 °FPassing clouds.2 mph69%29.47 "Hg1 mi
5:00 AM77 °FPassing clouds.7 mph65%29.45 "Hg2 mi
4:30 AM81 °FHaze.7 mph54%29.45 "Hg2 mi
4:00 AM81 °FHaze.9 mph54%29.45 "Hg2 mi
3:30 AM81 °FHaze.3 mph54%29.45 "Hg2 mi
3:00 AM81 °FHaze.No wind54%29.45 "Hg2 mi
2:30 AM79 °FHaze.No wind61%29.45 "Hg2 mi
2:00 AM79 °FHaze.No wind61%29.45 "Hg2 mi
1:30 AM81 °FHaze.No wind54%29.45 "Hg2 mi
1:00 AM79 °FHaze.No wind61%29.47 "Hg2 mi
11:30 PM
Wed, May 25
82 °FHaze.2 mph51%29.47 "Hg2 mi
11:00 PM81 °FHaze.2 mph54%29.47 "Hg2 mi
10:30 PM81 °FHaze.2 mph66%29.45 "Hg2 mi
9:30 PM86 °FHaze.No wind46%29.45 "Hg2 mi
9:00 PM86 °FHaze.No wind49%29.45 "Hg2 mi
8:30 PM88 °FHaze.No wind46%29.45 "Hg2 mi
8:00 PM90 °FDuststorm.2 mph41%29.45 "Hg3 mi
7:30 PM91 °FClear.No wind38%29.45 "Hg4 mi
7:00 PM93 °FClear.5 mph32%29.45 "Hg4 mi
6:30 PM95 °FClear.7 mph28%29.45 "Hg4 mi
6:00 PM97 °FClear.7 mph25%29.45 "Hg4 mi
5:00 PM99 °FClear.8 mph21%29.45 "Hg4 mi
4:30 PM99 °FClear.7 mph22%29.45 "Hg4 mi
4:00 PM99 °FClear.8 mph24%29.47 "Hg4 mi
3:30 PM99 °FClear.3 mph25%29.47 "Hg4 mi
3:00 PM97 °FClear.6 mph28%29.47 "Hg4 mi
2:30 PM97 °FClear.5 mph28%29.50 "Hg4 mi
2:00 PM95 °FClear.5 mph28%29.50 "Hg4 mi
1:30 PM95 °FClear.7 mph28%29.53 "Hg4 mi
1:00 PM93 °FClear.7 mph34%29.53 "Hg4 mi
12:30 PM93 °FClear.3 mph30%29.53 "Hg4 mi
12:00 PM93 °FClear.3 mph28%29.56 "Hg4 mi
11:30 AM91 °FClear.3 mph32%29.56 "Hg4 mi
11:00 AM90 °FClear.3 mph36%29.56 "Hg4 mi
10:30 AM91 °FClear.2 mph32%29.56 "Hg4 mi
10:00 AM90 °FClear.2 mph33%29.56 "Hg4 mi
9:30 AM88 °FClear.2 mph35%29.56 "Hg4 mi
9:00 AM86 °FPassing clouds.No wind38%29.59 "Hg4 mi
8:30 AM84 °FScattered clouds.No wind43%29.59 "Hg3 mi
8:00 AM82 °FScattered clouds.2 mph48%29.59 "Hg3 mi
Weather by CustomWeather, © 2016

See weather overviewHow to use our weather pages